Regional Weather Roundup
Issued by NWS New Orleans/Baton Rouge, LA

Home | Current Version | Previous Version | Text Only | Print | Product List | Glossary On
Versions: 1 2 3 4 5 6 7 8 9 10 11 12 13 14 15 16 17 18 19 20 21 22 23 24 25 26
000
ASUS44 KLIX 271612
RWRLIX
NEW ORLEANS REGIONAL WEATHER ROUNDUP
NATIONAL WEATHER SERVICE NEW ORLEANS LA
1100 AM CDT FRI MAY 27 2016

NOTE: "FAIR" INDICATES FEW OR NO CLOUDS BELOW 12,000 FEET WITH NO
      SIGNIFICANT WEATHER AND/OR OBSTRUCTIONS TO VISIBILITY.
      SKY/WX - SKY CONDITION AND SIGNIFICANT WEATHER.
      TMP - AIR TEMPERATURE.     DP    - DEWPOINT TEMPERATURE.
      RH  - RELATIVE HUMIDITY.   PRES  - PRESSURE.
      HI  - HEAT INDEX.          WCI   - WIND CHILL INDEX.

*  THESE STATIONS ARE NOT NWS OR FAA STATIONS AND ARE NOT UNDER
   NWS QUALITY CONTROL.

LAZ038-040-048-061>063-065>067-069-271700-
SOUTHEAST LOUISIANA

CITY           SKY/WX    TMP DP  RH WIND       PRES   REMARKS
N.O. AUDUBON     N/A     82  70  68 MISG        N/A
N.O. INTL ARPT CLOUDY    83  70  64 SE10      29.99S
N.O. LAKEFRONT CLOUDY    82  66  58 SE14      30.01R
N.O. DOWNTOWN*   N/A     82  68  62 VRB7      30.01R
RESERVE*         N/A     84  69  61 SE12      29.99S
SLIDELL        CLOUDY    82  68  62 SE6       30.01R
BATON ROUGE    CLOUDY    81  69  67 S10       29.98S
BOOTHVILLE     CLOUDY    80  68  66 SE9       30.01R
BELLE CHASSE   CLOUDY    81  69  67 SE10      30.00R
BOGALUSA*        N/A     82  69  63 S7        30.03R
GALLIANO*      CLOUDY    82  70  67 SE7       29.99S
NEW ROADS*       N/A     78  73  83 SE9       29.95F
GONZALES*      CLOUDY    82  70  68 S10       29.97S
HAMMOND*       CLOUDY    82  64  54 SE12G17   29.99F
HOUMA*         MOSUNNY   79  72  78 SE12G17   29.95S
PORT FOURCHON* PTSUNNY   81  72  74 SE15G21   29.98S

$$

MSZ070-080>082-271700-
SOUTHERN MISSISSIPPI

CITY           SKY/WX    TMP DP  RH WIND       PRES   REMARKS
MCCOMB         PTSUNNY   80  70  71 S10       30.00S
GULFPORT       CLOUDY    82  63  52 SE15      30.01R
BILOXI         CLOUDY    82  66  58 SE10G17   30.02R
PASCAGOULA     CLOUDY    82  69  64 SE15      30.03R
STENNIS ARPT*  SUNNY     82  57  42 S12G18    30.01R

$$

COASTAL OBSERVATIONS
LAKE AND NEARSHORE STATIONS

STATION/POSITION TIME  TEMP    WIND        PRES    WAVE
                       AIR SEA DIR/SP/G            HT/PER
                 (UTC) (F)     (DEG/KT/KT) (MB)    (FT/S)
PASCAGOULA       1500   83     130/ 16/ 20 1015.9
WAVELAND YACHT   1500   80 79  150/ 16/ 18 1015.9
GRAND ISLE       1500   80 81  150/  9/ 14 1015.2
SOUTHWEST PASS   1500          150/  7/ 16   N/A
NEW CANAL        1500   81 80  150/  5/ 10 1014.9
SHELL BEACH      1500   80 81  140/ 14/ 16 1015.8

OFFSHORE STATIONS

STATION/POSITION TIME  TEMP    WIND        PRES    WAVE
                       AIR SEA DIR/SP/G            HT/PER
                 (UTC) (F)     (DEG/KT/KT) (MB)    (FT/S)
64 S DAUPHIN ISL 1500   79 79  120/ 17/ 21 1015.1

$$





USA.gov is the U.S. government's official web portal to all federal, state and local government web resources and services.